Location: Newark
(48.4472°N, 1.4892°E)
Time: 10:50:50
(UTC+00:00)

Transit 4A - Pass Details

Date: 19 January 2021
Orbit: 866 x 978 km, 66.8° (Epoch: 26 February)

Event Time Altitude Azimuth Distance (km) Brightness Sun altitude
Rises 18:39:56 0° 167° (SSE) 3,657 11.0 -20.7°
Reaches altitude 10° 18:43:06 10° 152° (SSE) 2,720 10.1 -21.2°
Enters shadow 18:44:24 14° 142° (SE) 2,410 9.8 -21.4°
